Regional Weather Roundup
Issued by NWS

Home | Current Version | Previous Version | Graphics & Text | Print | Product List | Glossary Off
Versions: 1 2 3 4 5 6 7 8 9 10 11 12 13 14 15 16 17 18 19 20 21 22 23 24 25 26 27 28 29 30 31 32 33 34 35 36 37 38 39 40 41 42 43 44 45 46 47 48 49 50

000
ASUS43 KMKX 170000
RWRWI

WISCONSIN REGIONAL WEATHER ROUNDUP
NATIONAL WEATHER SERVICE MILWAUKEE/SULLIVAN WI
700 PM CDT TUE SEP 16 2014

NOTE: "FAIR" INDICATES FEW OR NO CLOUDS BELOW 12,000 FEET WITH NO
SIGNIFICANT WEATHER AND/OR OBSTRUCTIONS TO VISIBILITY.

WIZ001-002-006>008-014>016-023>028-170100-
NORTHWEST WISCONSIN

CITY           SKY/WX    TMP DP  RH WIND       PRES   REMARKS
SUPERIOR ARPT  CLEAR     64  45  49 SW7       29.99S
ASHLAND        CLEAR     58  47  66 SW8       29.99F
6HR MIN TEMP:  58; 6HR MAX TEMP:  69;

HAYWARD        CLEAR     62  42  47 SW5       30.03F
6HR MIN TEMP:  62; 6HR MAX TEMP:  66;

SIREN          CLEAR     62  43  49 SW6       30.03F
RICE LAKE      CLEAR     62  42  48 S5        30.06S
LADYSMITH      CLEAR     60  45  56 SW6       30.06S
EAU CLAIRE     NOT AVBL
MENOMONIE      CLEAR     63  43  49 S5        30.05F
NEW RICHMOND   CLEAR     62  43  49 SW5       30.05S
OSCEOLA        CLEAR     64  44  47 S3        30.06S
$$

WIZ003>005-009-010-017-018-170100-
NORTH CENTRAL WISCONSIN

CITY           SKY/WX    TMP DP  RH WIND       PRES   REMARKS
WOODRUFF       NOT AVBL
RHINELANDER    CLEAR     54  44  69 SW6       30.04S
6HR MIN TEMP:  54; 6HR MAX TEMP:  66;

EAGLE RIVER    CLEAR     59  40  49 W6        30.02S
LAND O LAKES   PTCLDY    61  41  47 W5        30.02S
PHILLIPS       CLEAR     60  43  53 SW6       30.03S
TOMAHAWK       CLEAR     59  42  54 CALM      30.05S
MEDFORD        CLEAR     58  44  58 SW3       30.06S
MERRILL        CLOUDY    59  45  58 W7        30.05S
$$

WIZ029-030-035-036-043>047-170100-
CENTRAL WISCONSIN

CITY           SKY/WX    TMP DP  RH WIND       PRES   REMARKS
WAUSAU         CLEAR     58  44  60 SW7       30.04F
6HR MIN TEMP:  58; 6HR MAX TEMP:  65;

MOSINEE        CLEAR     55  46  71 SW6       30.07S
MARSHFIELD     CLEAR     58  45  62 SW3       30.06F
6HR MIN TEMP:  58; 6HR MAX TEMP:  67;

STEVENS POINT  CLEAR     60  41  50 W5        30.07S
WAUPACA        CLEAR     62  45  52 SW3       30.06F
WAUTOMA        NOT AVBL
WISC RAPIDS    CLEAR     56  47  71 SW3       30.08F
6HR MIN TEMP:  56; 6HR MAX TEMP:  66;

CAMP DOUGLAS   NOT AVBL
$$

WIZ011>013-019>022-031-037>040-048>050-170100-
NORTHEAST WISCONSIN

CITY           SKY/WX    TMP DP  RH WIND       PRES   REMARKS
ANTIGO         CLEAR     57  44  60 W8        30.05S
STURGEON BAY   CLEAR     59  45  58 SW8       30.04S
6HR MIN TEMP:  59; 6HR MAX TEMP:  64;

GREEN BAY      CLEAR     58  47  66 SW5       30.05F
6HR MIN TEMP:  58; 6HR MAX TEMP:  66;

MANITOWOC      NOT AVBL
APPLETON       NOT AVBL
CLINTONVILLE   CLEAR     61  43  51 SW5       30.05F
OSHKOSH        CLEAR     59  44  57 SW3       30.07S
6HR MIN TEMP:  59; 6HR MAX TEMP:  64;

$$

WIZ032>034-041-042-053>061-170100-
SOUTHWEST WISCONSIN

CITY           SKY/WX    TMP DP  RH WIND       PRES   REMARKS
LA CROSSE      CLEAR     64  44  48 S3        30.06F
6HR MIN TEMP:  64; 6HR MAX TEMP:  69;

SPARTA         CLEAR     61  43  52 CALM      30.08F
VIROQUA        FAIR      60  45  57 SW3       30.08F
BOSCOBEL       CLEAR     61  48  62 CALM      30.08F
6HR MIN TEMP:  61; 6HR MAX TEMP:  68;

PRAIRIE DU CHI CLEAR     64  44  48 CALM      30.07F
PLATTEVILLE    FAIR      61  46  58 CALM      30.10F
$$

WIZ056-057-062-063-064-067-068-170100-
SOUTH CENTRAL WISCONSIN

CITY           SKY/WX    TMP DP  RH WIND       PRES   REMARKS
BARABOO/DELLS  CLEAR     60  42  52 W5        30.09S
LONE ROCK      NOT AVBL
WATERTOWN      CLEAR     59  43  54 CALM      30.09S
MADISON        PTCLDY    56  46  69 CALM      30.09S
6HR MIN TEMP:  56; 6HR MAX TEMP:  66;

MIDDLETON      FAIR      60  45  59 W3        30.09F
MONROE         CLEAR     61  43  51 W3        30.09F
JANESVILLE     CLEAR     63  43  48 W5        30.08F
$$

WIZ051-052-058>065-066-070>072-170100-
SOUTHEAST WISCONSIN

CITY           SKY/WX    TMP DP  RH WIND       PRES   REMARKS
MILWAUKEE      CLEAR     56  43  61 SE8       30.09F
6HR MIN TEMP:  56; 6HR MAX TEMP:  65;

WAUKESHA       CLEAR     55  41  58 W6        30.10F
MILWAUKEE/TIMM NOT AVBL
RACINE         CLEAR     57  43  59 S5        30.11F
6HR MIN TEMP:  57; 6HR MAX TEMP:  63;

BURLINGTON     CLEAR     56  45  66 CALM      30.09F
KENOSHA        CLEAR     56  45  66 SE8       30.10F
6HR MIN TEMP:  56; 6HR MAX TEMP:  65;

FOND DU LAC    CLEAR     56  45  66 SW3       30.08F
6HR MIN TEMP:  56; 6HR MAX TEMP:  64;

SHEBOYGAN      CLEAR     54  43  66 SW3       30.08F
6HR MIN TEMP:  54; 6HR MAX TEMP:  64;

WEST BEND      CLEAR     59  39  47 W5        30.09S
JUNEAU         CLEAR     58  44  58 SW3       30.10S
$$

LSZ147-162-170100-
LAKE SUPERIOR

STATION/POSITION TIME  TEMP    WIND        PRES    WAVE
                       AIR SEA DIR/SP/G            HT/PER
                 (UTC) (F)     (DEG/KT/KT) (MB)    (FT/S)
W MID LAKE BUOY  2250   51 46  300/  6/  8 1014.8R   4/ 6
DEVILS ISLAND    2300   60     240/ 16/ 18 1014.6R
PORT WING        2300   68     220/  8/ 13 1015.2
SAXON HARBOR     2300   67     220/  5/ 10 1015.6F
$$

LMZ867-665-643>646-170100-
LAKE MICHIGAN

STATION/POSITION TIME  TEMP    WIND        PRES    WAVE
                       AIR SEA DIR/SP/G            HT/PER
                 (UTC) (F)     (DEG/KT/KT) (MB)    (FT/S)
N MID LAKE BUOY  2250   58 58  210/ 19/ 23 1016.1F   3/ 4
NORTHPORT PIER   2300   64     200/  4/  8 1015.9F
KEWAUNEE LAKESHO 2300   63     230/  5/  9 1016.8F
SHEBOYGAN LAKESH 2300   57 50  180/ 11/ 12 1019.1S
PORT WASHINGTON  2300   60     190/  6/  9 1019.6S
ATWATER BUOY     2300   60     150/ 10/ 12 1020.1F
MILWAUKEE LAKESH 2300   58     150/ 10/ 11   N/A
S MID LAKE BUOY  2250   60 65   CALM  /  2 1020.0F   1
KENOSHA   LAKESH 2300   62     150/  7/  8 1019.0F
$$

TC  - TEMPERATURE IN CELSIUS
VSB - VISIBILITY IN STATUTE MILES
WCI - WIND CHILL INDEX
HX  - HEAT INDEX




USA.gov is the U.S. government's official web portal to all federal, state and local government web resources and services.